contact:dominique.lefevre@mio.osupytheas.fr, maurice.libes@osupytheas.fr, didier.mallarino@osupytheas.fr
Project:EMSO http://www.emso-fr.org/EMSO-France
Depth: 2436.0 m
Title:EMSO Ligure Ouest : Data MII capteur AQUADOPP
Date,Latitude,Longitude,X_East,Y_North,Z_Up,Amplitude_X,Amplitude_Y,Amplitude_Z,Batterie,SoundSpeed,Heading,Pitch,Roll,Pressure,TIS,Speed,Direction
, degrees North, degrees East, m.s-1, m.s-1,m.s-1, 1, 1, 1, Volt, m.s-1, degree, degree, degree, dbar, degree_C, m.s-1, degree
2023-02-12T00:04:03,42.805,6.029,-0.006,0.0,-0.005,102.0,101.0,101.0,13.4,1505.2,332.5,-0.7,1.8,2471.171,13.29,0.006,270.0
2023-02-12T00:07:03,42.805,6.029,-0.009,-0.012,-0.01,103.0,101.0,101.0,13.4,1505.2,321.6,-0.7,1.8,2471.165,13.29,0.015,216.9
2023-02-12T00:10:03,42.805,6.029,-0.031,0.024,0.02,101.0,101.0,101.0,13.4,1505.2,328.0,-0.8,1.8,2471.131,13.29,0.039,307.7
2023-02-12T00:13:03,42.805,6.029,-0.019,0.03,-0.003,102.0,101.0,101.0,13.4,1505.2,327.9,-0.7,1.8,2471.18,13.29,0.035,327.7
2023-02-12T00:16:03,42.805,6.029,-0.019,0.006,0.001,101.0,102.0,101.0,13.4,1505.2,329.3,-0.8,1.8,2471.176,13.29,0.019,287.5
2023-02-12T00:19:03,42.805,6.029,-0.016,0.021,0.02,102.0,102.0,101.0,13.4,1505.2,337.4,-0.8,1.8,2471.166,13.29,0.026,322.7
2023-02-12T00:22:03,42.805,6.029,-0.033,0.0,-0.035,103.0,101.0,102.0,13.3,1505.2,324.2,-0.7,1.8,2471.172,13.29,0.033,270.0
2023-02-12T00:25:03,42.805,6.029,-0.033,0.025,0.026,101.0,102.0,102.0,13.3,1505.2,331.5,-0.8,1.8,2471.137,13.29,0.041,307.1
2023-02-12T00:28:03,42.805,6.029,-0.045,0.014,-0.003,100.0,101.0,101.0,13.4,1505.2,333.0,-0.7,1.8,2471.144,13.29,0.047,287.3
2023-02-12T00:31:03,42.805,6.029,-0.023,0.041,0.024,102.0,101.0,101.0,13.3,1505.2,333.0,-0.7,1.8,2471.119,13.29,0.047,330.7
2023-02-12T00:34:03,42.805,6.029,-0.043,0.027,-0.015,101.0,101.0,101.0,13.4,1505.2,330.9,-0.8,1.8,2471.12,13.29,0.05,302.1
2023-02-12T00:37:03,42.805,6.029,-0.043,0.021,-0.02,101.0,101.0,102.0,13.4,1505.2,323.8,-0.7,1.8,2471.129,13.29,0.047,296.0
2023-02-12T00:40:03,42.805,6.029,-0.021,0.006,-0.014,101.0,102.0,101.0,13.4,1505.2,332.2,-0.8,1.8,2471.16,13.29,0.021,285.9
2023-02-12T00:43:03,42.805,6.029,-0.031,0.022,-0.005,101.0,101.0,102.0,13.4,1505.2,321.3,-0.7,1.8,2471.163,13.29,0.038,305.4
2023-02-12T00:46:03,42.805,6.029,-0.016,0.005,-0.026,102.0,101.0,100.0,13.4,1505.2,329.2,-0.7,1.8,2471.124,13.29,0.016,287.4
2023-02-12T00:49:03,42.805,6.029,-0.04,0.01,0.014,103.0,102.0,101.0,13.4,1505.2,323.8,-0.8,1.8,2471.149,13.29,0.041,284.0
2023-02-12T00:52:03,42.805,6.029,-0.039,0.016,-0.012,101.0,102.0,101.0,13.3,1505.2,330.4,-0.8,1.8,2471.13,13.29,0.042,292.3
2023-02-12T00:55:03,42.805,6.029,-0.001,0.023,0.016,104.0,101.0,101.0,13.4,1505.2,331.3,-0.8,1.8,2471.13,13.29,0.023,357.5
2023-02-12T00:58:03,42.805,6.029,-0.011,0.018,0.009,101.0,103.0,101.0,13.4,1505.2,337.7,-0.8,1.8,2471.117,13.29,0.021,328.6
2023-02-12T01:01:03,42.805,6.029,-0.038,0.013,0.004,101.0,101.0,101.0,13.4,1505.2,325.2,-0.7,1.8,2471.111,13.29,0.04,288.9
2023-02-12T01:04:03,42.805,6.029,-0.051,0.021,0.03,103.0,102.0,103.0,13.4,1505.2,326.3,-0.7,1.8,2471.142,13.29,0.055,292.4
2023-02-12T01:07:03,42.805,6.029,-0.029,0.0,-0.044,102.0,103.0,102.0,13.4,1505.2,339.7,-0.8,1.8,2471.124,13.29,0.028,270.0
2023-02-12T01:10:03,42.805,6.029,-0.02,0.029,0.008,102.0,101.0,102.0,13.4,1505.2,334.5,-0.8,1.8,2471.12,13.29,0.035,325.4
2023-02-12T01:13:03,42.805,6.029,-0.047,0.017,0.002,101.0,102.0,101.0,13.4,1505.2,336.1,-0.8,1.8,2471.159,13.29,0.049,289.9
2023-02-12T01:16:03,42.805,6.029,-0.031,0.001,-0.013,102.0,102.0,101.0,13.3,1505.2,332.6,-0.8,1.8,2471.139,13.29,0.031,271.8
2023-02-12T01:19:03,42.805,6.029,-0.025,0.0,-0.024,103.0,101.0,101.0,13.4,1505.2,332.3,-0.8,1.8,2471.112,13.29,0.025,270.0
2023-02-12T01:22:03,42.805,6.029,-0.024,-0.002,-0.019,101.0,102.0,100.0,13.4,1505.2,318.6,-0.8,1.8,2471.117,13.29,0.024,265.2
2023-02-12T01:25:03,42.805,6.029,0.0,0.007,0.014,103.0,100.0,102.0,13.4,1505.2,323.1,-0.8,1.8,2471.098,13.29,0.007,0.0
2023-02-12T01:28:03,42.805,6.029,-0.032,-0.002,-0.043,101.0,101.0,101.0,13.4,1505.2,321.8,-0.8,1.8,2471.121,13.29,0.032,266.4
2023-02-12T01:31:03,42.805,6.029,-0.023,0.025,-0.043,102.0,101.0,100.0,13.4,1505.2,335.6,-0.8,1.8,2471.147,13.29,0.033,317.4
2023-02-12T01:34:03,42.805,6.029,0.001,0.021,0.042,102.0,101.0,101.0,13.4,1505.2,331.1,-0.8,1.8,2471.084,13.29,0.021,2.7
2023-02-12T01:37:03,42.805,6.029,-0.042,0.03,-0.002,102.0,103.0,100.0,13.4,1505.2,322.4,-0.8,1.8,2471.129,13.29,0.051,305.5
2023-02-12T01:40:03,42.805,6.029,-0.02,0.003,-0.029,103.0,101.0,100.0,13.3,1505.2,324.6,-0.7,1.8,2471.137,13.29,0.02,278.5
2023-02-12T01:43:03,42.805,6.029,-0.012,0.008,0.003,101.0,102.0,101.0,13.4,1505.2,323.2,-0.8,1.8,2471.101,13.29,0.014,303.7
2023-02-12T01:46:03,42.805,6.029,-0.01,0.002,-0.004,102.0,102.0,101.0,13.4,1505.2,340.0,-0.8,1.8,2471.147,13.29,0.01,281.3
2023-02-12T01:49:03,42.805,6.029,-0.048,0.006,-0.019,101.0,101.0,102.0,13.4,1505.2,325.7,-0.8,1.8,2471.109,13.29,0.048,277.1
2023-02-12T01:52:03,42.805,6.029,-0.011,0.006,0.009,102.0,103.0,101.0,13.4,1505.2,330.8,-0.8,1.8,2471.142,13.29,0.012,298.6
2023-02-12T01:55:03,42.805,6.029,-0.015,0.023,0.001,102.0,102.0,101.0,13.4,1505.2,331.5,-0.8,1.8,2471.143,13.29,0.027,326.9
2023-02-12T01:58:03,42.805,6.029,-0.023,0.015,0.004,102.0,102.0,102.0,13.4,1505.2,322.9,-0.8,1.8,2471.139,13.29,0.027,303.1
2023-02-12T02:04:03,42.805,6.029,-0.024,-0.009,-0.007,102.0,101.0,100.0,13.4,1505.2,321.0,-0.8,1.8,2471.127,13.29,0.025,249.4
2023-02-12T02:07:03,42.805,6.029,-0.042,0.028,0.024,100.0,101.0,101.0,13.4,1505.2,326.5,-0.8,1.8,2471.188,13.29,0.05,303.7
2023-02-12T02:10:03,42.805,6.029,-0.005,0.002,-0.017,101.0,101.0,101.0,13.4,1505.2,323.4,-0.8,1.8,2471.165,13.29,0.005,291.8
2023-02-12T02:13:03,42.805,6.029,-0.031,0.007,-0.004,101.0,101.0,101.0,13.3,1505.2,315.0,-0.7,1.8,2471.117,13.29,0.031,282.7
2023-02-12T02:16:03,42.805,6.029,-0.012,0.018,-0.001,102.0,101.0,101.0,13.4,1505.2,315.5,-0.7,1.8,2471.146,13.29,0.021,326.3
2023-02-12T02:19:03,42.805,6.029,-0.028,0.017,0.001,101.0,103.0,102.0,13.4,1505.2,321.4,-0.8,1.8,2471.156,13.29,0.032,301.3
2023-02-12T02:22:03,42.805,6.029,-0.027,0.003,-0.02,102.0,102.0,101.0,13.4,1505.2,336.1,-0.7,1.8,2471.145,13.29,0.027,276.3
2023-02-12T02:25:03,42.805,6.029,-0.045,0.022,-0.003,103.0,102.0,102.0,13.4,1505.2,324.8,-0.7,1.8,2471.109,13.29,0.05,296.1
2023-02-12T02:28:03,42.805,6.029,-0.014,0.014,0.015,101.0,101.0,102.0,13.3,1505.2,326.9,-0.7,1.8,2471.098,13.29,0.019,315.0
2023-02-12T02:31:03,42.805,6.029,-0.05,0.002,-0.027,102.0,102.0,102.0,13.4,1505.2,316.8,-0.7,1.8,2471.125,13.29,0.05,272.3
2023-02-12T02:34:03,42.805,6.029,-0.02,0.009,-0.019,103.0,100.0,101.0,13.4,1505.2,321.4,-0.8,1.8,2471.1,13.29,0.021,294.2
2023-02-12T02:37:03,42.805,6.029,-0.004,0.007,-0.029,103.0,100.0,101.0,13.4,1505.2,321.0,-0.7,1.8,2471.102,13.29,0.008,330.3
2023-02-12T02:40:03,42.805,6.029,-0.035,0.023,0.01,100.0,101.0,102.0,13.4,1505.2,322.6,-0.8,1.8,2471.113,13.29,0.041,303.3
2023-02-12T02:43:03,42.805,6.029,-0.027,0.008,-0.015,102.0,101.0,101.0,13.4,1505.2,316.1,-0.8,1.8,2471.104,13.29,0.028,286.5
2023-02-12T02:46:03,42.805,6.029,-0.036,0.027,0.025,102.0,102.0,101.0,13.4,1505.2,322.9,-0.8,1.8,2471.088,13.29,0.045,306.9
2023-02-12T02:49:03,42.805,6.029,-0.033,0.015,-0.017,105.0,102.0,101.0,13.4,1505.2,328.6,-0.7,1.8,2471.111,13.29,0.036,294.4
2023-02-12T02:52:03,42.805,6.029,-0.024,0.007,-0.028,102.0,103.0,101.0,13.4,1505.2,331.2,-0.8,1.8,2471.093,13.29,0.025,286.3
2023-02-12T02:55:03,42.805,6.029,-0.02,0.015,-0.011,101.0,103.0,102.0,13.4,1505.2,333.4,-0.8,1.8,2471.085,13.29,0.025,306.9
2023-02-12T02:58:03,42.805,6.029,-0.04,0.001,-0.038,102.0,103.0,101.0,13.4,1505.2,331.8,-0.8,1.8,2471.09,13.29,0.04,271.4
2023-02-12T03:04:03,42.805,6.029,-0.035,0.017,-0.013,102.0,102.0,100.0,13.3,1505.2,328.6,-0.7,1.8,2471.141,13.29,0.038,295.9
2023-02-12T03:07:03,42.805,6.029,-0.003,0.01,0.001,102.0,101.0,101.0,13.4,1505.2,339.4,-0.8,1.7,2471.135,13.29,0.01,343.3
2023-02-12T03:10:03,42.805,6.029,-0.016,0.015,-0.004,101.0,100.0,101.0,13.3,1505.2,323.4,-0.8,1.9,2471.124,13.29,0.021,313.1
2023-02-12T03:13:03,42.805,6.029,-0.032,0.02,-0.009,101.0,102.0,101.0,13.4,1505.2,326.0,-0.8,1.8,2471.147,13.29,0.037,302.0
2023-02-12T03:16:03,42.805,6.029,-0.034,0.046,0.019,102.0,102.0,100.0,13.4,1505.2,339.3,-0.8,1.8,2471.117,13.29,0.057,323.5
2023-02-12T03:19:03,42.805,6.029,-0.031,0.007,-0.015,101.0,102.0,101.0,13.4,1505.2,322.2,-0.8,1.8,2471.105,13.29,0.031,282.7
2023-02-12T03:22:03,42.805,6.029,-0.013,0.011,-0.018,100.0,100.0,101.0,13.4,1505.2,336.5,-0.8,1.8,2471.097,13.29,0.017,310.2
2023-02-12T03:25:03,42.805,6.029,-0.026,0.02,-0.006,102.0,103.0,101.0,13.4,1505.2,339.7,-0.8,1.8,2471.104,13.29,0.032,307.6
2023-02-12T03:28:03,42.805,6.029,-0.011,0.004,-0.005,101.0,101.0,101.0,13.3,1505.2,333.4,-0.8,1.8,2471.103,13.29,0.011,290.0
2023-02-12T03:31:03,42.805,6.029,-0.019,0.012,-0.013,101.0,103.0,100.0,13.4,1505.2,325.6,-0.8,1.8,2471.149,13.29,0.022,302.3
2023-02-12T03:34:03,42.805,6.029,-0.04,0.007,-0.022,102.0,101.0,99.0,13.4,1505.2,326.8,-0.7,1.8,2471.101,13.29,0.04,279.9
2023-02-12T03:37:03,42.805,6.029,-0.029,0.012,0.026,103.0,100.0,100.0,13.4,1505.2,329.4,-0.8,1.8,2471.113,13.29,0.031,292.5
2023-02-12T03:40:03,42.805,6.029,-0.018,0.0,0.012,102.0,103.0,99.0,13.4,1505.2,328.8,-0.8,1.8,2471.06,13.29,0.018,270.0
2023-02-12T03:43:03,42.805,6.029,-0.034,0.013,0.01,101.0,102.0,100.0,13.3,1505.2,316.6,-0.8,1.8,2471.071,13.29,0.036,290.9
2023-02-12T03:46:03,42.805,6.029,-0.019,-0.007,-0.018,104.0,102.0,101.0,13.4,1505.2,331.0,-0.8,1.8,2471.064,13.29,0.02,249.8
2023-02-12T03:49:03,42.805,6.029,-0.005,0.015,-0.003,102.0,101.0,101.0,13.4,1505.2,330.6,-0.8,1.8,2471.081,13.29,0.015,341.6
2023-02-12T03:52:03,42.805,6.029,-0.005,0.018,0.001,101.0,101.0,101.0,13.4,1505.2,322.2,-0.7,1.8,2471.062,13.29,0.018,344.5
2023-02-12T03:55:03,42.805,6.029,-0.012,0.004,-0.033,101.0,103.0,100.0,13.3,1505.2,332.6,-0.8,1.8,2471.101,13.29,0.012,288.4
2023-02-12T03:58:03,42.805,6.029,-0.015,0.024,-0.006,101.0,102.0,102.0,13.4,1505.2,338.5,-0.7,1.8,2471.081,13.29,0.028,328.0
2023-02-12T04:04:03,42.805,6.029,-0.008,-0.008,0.01,101.0,102.0,101.0,13.4,1505.2,316.1,-0.8,1.8,2471.148,13.29,0.011,225.0
2023-02-12T04:07:03,42.805,6.029,-0.044,0.036,0.031,100.0,101.0,101.0,13.3,1505.2,326.3,-0.8,1.8,2471.098,13.29,0.056,309.3
2023-02-12T04:10:03,42.805,6.029,-0.021,0.01,-0.013,102.0,100.0,101.0,13.4,1505.2,323.4,-0.7,1.8,2471.12,13.29,0.023,295.5
2023-02-12T04:13:03,42.805,6.029,-0.015,0.005,-0.015,101.0,101.0,103.0,13.4,1505.2,317.3,-0.8,1.8,2471.102,13.29,0.015,288.4
2023-02-12T04:16:03,42.805,6.029,-0.016,0.007,-0.021,101.0,101.0,101.0,13.3,1505.2,331.1,-0.8,1.9,2471.078,13.29,0.017,293.6
2023-02-12T04:19:03,42.805,6.029,-0.026,0.0,-0.017,99.0,102.0,102.0,13.4,1505.2,316.8,-0.8,1.8,2471.094,13.29,0.026,270.0
2023-02-12T04:22:03,42.805,6.029,-0.04,0.002,-0.025,102.0,101.0,101.0,13.4,1505.2,332.5,-0.8,1.8,2471.071,13.29,0.04,272.9
2023-02-12T04:25:03,42.805,6.029,-0.02,0.002,0.011,101.0,102.0,101.0,13.3,1505.2,325.2,-0.8,1.8,2471.077,13.29,0.02,275.7
2023-02-12T04:28:03,42.805,6.029,0.006,0.004,0.0,103.0,102.0,101.0,13.3,1505.2,335.0,-0.8,1.8,2471.085,13.29,0.007,56.3
2023-02-12T04:31:03,42.805,6.029,-0.007,-0.016,-0.001,101.0,101.0,100.0,13.4,1505.2,318.7,-0.8,1.8,2471.075,13.29,0.017,203.6
2023-02-12T04:34:03,42.805,6.029,-0.014,0.0,-0.005,101.0,101.0,101.0,13.4,1505.2,333.0,-0.8,1.8,2471.044,13.29,0.014,270.0
2023-02-12T04:37:03,42.805,6.029,-0.003,-0.003,0.007,101.0,102.0,102.0,13.4,1505.2,326.0,-0.7,1.8,2471.057,13.29,0.004,225.0
2023-02-12T04:40:03,42.805,6.029,-0.028,0.014,0.002,101.0,101.0,102.0,13.3,1505.2,337.4,-0.7,1.8,2471.037,13.29,0.031,296.6
2023-02-12T04:43:03,42.805,6.029,-0.028,0.01,-0.011,101.0,101.0,101.0,13.3,1505.2,333.8,-0.8,1.8,2471.046,13.29,0.029,289.6
2023-02-12T04:46:03,42.805,6.029,-0.025,-0.027,-0.062,102.0,101.0,101.0,13.4,1505.2,320.3,-0.7,1.8,2471.08,13.29,0.036,222.8
2023-02-12T04:49:03,42.805,6.029,-0.032,0.002,-0.011,103.0,100.0,100.0,13.3,1505.2,317.9,-0.8,1.8,2471.101,13.29,0.032,273.6
2023-02-12T04:52:03,42.805,6.029,-0.023,0.0,-0.011,101.0,102.0,100.0,13.3,1505.2,322.4,-0.8,1.8,2471.078,13.29,0.023,270.0
2023-02-12T04:55:03,42.805,6.029,-0.009,0.014,0.027,101.0,101.0,101.0,13.3,1505.2,324.0,-0.8,1.8,2471.054,13.29,0.016,327.3
2023-02-12T04:58:03,42.805,6.029,-0.024,0.008,-0.02,101.0,102.0,100.0,13.4,1505.2,335.2,-0.8,1.8,2471.053,13.29,0.025,288.4
2023-02-12T05:04:03,42.805,6.029,-0.031,0.033,-0.009,101.0,101.0,101.0,13.4,1505.2,336.9,-0.8,1.9,2471.117,13.29,0.045,316.8
2023-02-12T05:07:03,42.805,6.029,-0.013,0.024,0.003,103.0,102.0,100.0,13.4,1505.2,317.6,-0.8,1.8,2471.084,13.29,0.027,331.6
2023-02-12T05:10:03,42.805,6.029,-0.028,0.019,-0.007,101.0,102.0,101.0,13.4,1505.2,326.0,-0.8,1.8,2471.061,13.29,0.033,304.2
2023-02-12T05:13:03,42.805,6.029,-0.019,0.013,0.0,101.0,102.0,101.0,13.4,1505.2,323.3,-0.7,1.8,2471.073,13.29,0.023,304.4
2023-02-12T05:16:03,42.805,6.029,-0.03,-0.024,-0.032,100.0,102.0,102.0,13.3,1505.2,316.1,-0.8,1.8,2471.088,13.29,0.038,231.3
2023-02-12T05:19:03,42.805,6.029,-0.011,0.002,-0.011,102.0,101.0,101.0,13.3,1505.2,326.0,-0.7,1.8,2471.038,13.29,0.011,280.3
2023-02-12T05:22:03,42.805,6.029,0.009,0.003,-0.016,101.0,101.0,101.0,13.4,1505.2,330.4,-0.8,1.8,2471.047,13.29,0.009,71.6
2023-02-12T05:25:03,42.805,6.029,-0.029,0.009,-0.004,102.0,99.0,101.0,13.3,1505.2,322.9,-0.8,1.8,2471.025,13.29,0.03,287.2
2023-02-12T05:28:03,42.805,6.029,-0.032,0.026,-0.013,102.0,101.0,100.0,13.3,1505.2,340.9,-0.8,1.9,2471.019,13.29,0.041,309.1
2023-02-12T05:31:03,42.805,6.029,-0.012,0.013,-0.006,100.0,102.0,101.0,13.4,1505.2,336.9,-0.7,1.8,2471.014,13.29,0.017,317.3
2023-02-12T05:34:03,42.805,6.029,-0.033,0.002,-0.002,102.0,101.0,101.0,13.3,1505.2,333.4,-0.8,1.8,2471.046,13.29,0.033,273.5
2023-02-12T05:37:03,42.805,6.029,-0.02,0.017,-0.014,102.0,102.0,100.0,13.4,1505.2,322.9,-0.7,1.8,2471.05,13.29,0.026,310.4
2023-02-12T05:40:03,42.805,6.029,-0.034,0.012,0.028,102.0,100.0,102.0,13.3,1505.2,322.4,-0.8,1.8,2471.02,13.29,0.036,289.4
2023-02-12T05:43:03,42.805,6.029,-0.019,0.006,-0.011,101.0,102.0,100.0,13.4,1505.2,323.1,-0.8,1.8,2471.091,13.29,0.019,287.5
2023-02-12T05:46:03,42.805,6.029,-0.019,0.003,-0.026,101.0,101.0,102.0,13.4,1505.2,325.2,-0.8,1.8,2471.062,13.29,0.019,279.0
2023-02-12T05:49:03,42.805,6.029,-0.03,0.0,-0.043,102.0,101.0,100.0,13.4,1505.2,336.9,-0.8,1.8,2471.051,13.29,0.03,270.0
2023-02-12T05:52:03,42.805,6.029,-0.023,-0.014,-0.052,102.0,101.0,100.0,13.4,1505.2,328.0,-0.8,1.8,2471.036,13.29,0.026,238.7
2023-02-12T05:55:03,42.805,6.029,-0.031,0.0,-0.041,99.0,101.0,102.0,13.3,1505.2,330.2,-0.8,1.8,2471.095,13.29,0.03,270.0
2023-02-12T05:58:03,42.805,6.029,-0.018,-0.006,-0.008,101.0,101.0,101.0,13.4,1505.2,329.0,-0.8,1.8,2471.056,13.29,0.018,251.6
2023-02-12T06:04:04,42.805,6.029,-0.033,0.015,0.008,102.0,102.0,101.0,13.4,1505.2,328.3,-0.8,1.8,2471.077,13.29,0.036,294.4
2023-02-12T06:07:03,42.805,6.029,-0.017,0.009,-0.006,102.0,101.0,100.0,13.4,1505.2,318.8,-0.8,1.8,2471.107,13.29,0.019,297.9
2023-02-12T06:10:03,42.805,6.029,-0.016,0.004,-0.038,101.0,103.0,102.0,13.4,1505.2,317.3,-0.8,1.8,2471.091,13.29,0.016,284.0
2023-02-12T06:13:03,42.805,6.029,-0.031,0.01,0.018,102.0,103.0,101.0,13.4,1505.2,321.6,-0.8,1.8,2471.095,13.29,0.032,287.9
2023-02-12T06:16:03,42.805,6.029,-0.023,0.001,0.003,102.0,102.0,101.0,13.4,1505.2,322.9,-0.7,1.8,2471.046,13.29,0.023,272.5
2023-02-12T06:19:03,42.805,6.029,-0.003,-0.008,-0.018,102.0,104.0,101.0,13.4,1505.2,328.4,-0.8,1.8,2471.068,13.29,0.008,200.6
2023-02-12T06:22:03,42.805,6.029,-0.01,0.002,-0.014,100.0,103.0,102.0,13.4,1505.2,322.4,-0.7,1.8,2471.105,13.29,0.01,281.3
2023-02-12T06:25:03,42.805,6.029,-0.024,-0.017,-0.016,100.0,102.0,101.0,13.3,1505.2,327.9,-0.8,1.8,2471.072,13.29,0.029,234.7
2023-02-12T06:28:03,42.805,6.029,-0.001,0.004,0.0,101.0,102.0,101.0,13.4,1505.2,324.7,-0.8,1.8,2471.048,13.29,0.004,346.0
2023-02-12T06:31:03,42.805,6.029,-0.039,-0.001,-0.001,101.0,101.0,101.0,13.4,1505.2,330.8,-0.8,1.8,2471.08,13.29,0.039,268.5
2023-02-12T06:34:02,42.805,6.029,-0.006,-0.014,-0.04,101.0,102.0,101.0,13.3,1505.2,333.0,-0.8,1.8,2471.055,13.29,0.015,203.2
2023-02-12T06:37:02,42.805,6.029,0.006,-0.019,0.007,102.0,101.0,101.0,13.3,1505.2,336.8,-0.8,1.8,2471.037,13.29,0.019,162.5
2023-02-12T06:40:02,42.805,6.029,-0.031,0.009,-0.038,101.0,102.0,102.0,13.4,1505.2,335.7,-0.8,1.8,2471.022,13.29,0.032,286.2
2023-02-12T06:43:02,42.805,6.029,-0.02,0.023,0.0,102.0,101.0,101.0,13.4,1505.2,322.8,-0.7,1.8,2471.006,13.29,0.03,319.0
2023-02-12T06:46:02,42.805,6.029,-0.037,0.008,-0.011,102.0,101.0,101.0,13.3,1505.2,319.1,-0.8,1.8,2471.05,13.29,0.037,282.2
2023-02-12T06:49:02,42.805,6.029,-0.027,0.007,-0.03,102.0,101.0,101.0,13.4,1505.2,331.2,-0.8,1.8,2471.043,13.29,0.027,284.5
2023-02-12T06:52:02,42.805,6.029,-0.012,0.008,-0.014,101.0,101.0,102.0,13.3,1505.2,327.7,-0.8,1.8,2471.054,13.29,0.014,303.7
2023-02-12T06:55:02,42.805,6.029,-0.013,0.008,0.002,101.0,100.0,101.0,13.3,1505.2,320.9,-0.8,1.9,2471.031,13.29,0.015,301.6
2023-02-12T06:58:03,42.805,6.029,-0.016,0.023,-0.004,99.0,103.0,101.0,13.4,1505.2,321.2,-0.8,1.8,2471.058,13.29,0.028,325.2
2023-02-12T07:04:02,42.805,6.029,-0.031,0.005,0.015,101.0,102.0,101.0,13.3,1505.2,317.6,-0.8,1.8,2471.11,13.29,0.031,279.2
2023-02-12T07:07:02,42.805,6.029,-0.041,0.023,0.0,101.0,104.0,101.0,13.4,1505.2,321.4,-0.8,1.8,2471.151,13.29,0.047,299.3
2023-02-12T07:10:03,42.805,6.029,-0.005,-0.012,-0.031,102.0,102.0,101.0,13.4,1505.2,316.7,-0.7,1.8,2471.138,13.29,0.013,202.6
2023-02-12T07:13:03,42.805,6.029,-0.019,0.004,-0.004,101.0,100.0,101.0,13.4,1505.2,316.0,-0.8,1.8,2471.127,13.29,0.019,281.9
2023-02-12T07:16:03,42.805,6.029,-0.016,-0.001,-0.028,101.0,103.0,101.0,13.4,1505.2,320.7,-0.8,1.8,2471.1,13.29,0.016,266.4
2023-02-12T07:19:03,42.805,6.029,-0.02,0.013,0.035,100.0,103.0,100.0,13.3,1505.2,318.7,-0.8,1.8,2471.091,13.29,0.023,303.0
2023-02-12T07:22:02,42.805,6.029,0.0,-0.011,-0.026,101.0,102.0,101.0,13.3,1505.2,330.9,-0.7,1.8,2471.062,13.29,0.011,180.0
2023-02-12T07:25:03,42.805,6.029,-0.031,0.019,-0.002,103.0,102.0,102.0,13.4,1505.2,328.5,-0.7,1.8,2471.088,13.29,0.036,301.5
2023-02-12T07:28:03,42.805,6.029,0.013,0.025,0.022,102.0,101.0,100.0,13.3,1505.2,337.8,-0.7,1.8,2471.135,13.29,0.028,27.5
2023-02-12T07:31:03,42.805,6.029,-0.018,0.045,0.01,103.0,102.0,100.0,13.4,1505.2,334.3,-0.8,1.9,2471.114,13.29,0.048,338.2
2023-02-12T07:34:03,42.805,6.029,-0.004,0.007,0.001,101.0,102.0,101.0,13.4,1505.2,318.7,-0.7,1.8,2471.104,13.29,0.008,330.3
2023-02-12T07:37:03,42.805,6.029,-0.022,-0.012,-0.021,101.0,101.0,112.0,13.3,1505.2,333.8,-0.8,1.8,2471.089,13.29,0.025,241.4
2023-02-12T07:40:03,42.805,6.029,-0.023,-0.009,-0.046,102.0,100.0,101.0,13.4,1505.2,323.1,-0.8,1.8,2471.085,13.29,0.024,248.6
2023-02-12T07:43:03,42.805,6.029,-0.022,0.011,-0.028,102.0,101.0,101.0,13.3,1505.2,322.5,-0.8,1.8,2471.082,13.29,0.024,296.6
2023-02-12T07:46:03,42.805,6.029,-0.015,0.03,0.008,101.0,102.0,100.0,13.3,1505.2,323.6,-0.7,1.8,2471.126,13.29,0.033,333.4
2023-02-12T07:49:03,42.805,6.029,-0.019,0.01,0.01,102.0,103.0,101.0,13.4,1505.2,332.6,-0.7,1.8,2471.112,13.29,0.021,297.8
2023-02-12T07:52:03,42.805,6.029,0.0,0.023,0.0,102.0,102.0,100.0,13.4,1505.2,327.0,-0.8,1.8,2471.126,13.29,0.023,0.0
2023-02-12T07:55:03,42.805,6.029,-0.022,-0.013,-0.018,102.0,101.0,100.0,13.4,1505.2,331.1,-0.8,1.8,2471.103,13.29,0.025,239.4
2023-02-12T07:58:03,42.805,6.029,-0.019,0.005,-0.004,101.0,102.0,101.0,13.4,1505.2,336.6,-0.8,1.8,2471.09,13.29,0.019,284.7
2023-02-12T08:04:02,42.805,6.029,-0.01,-0.001,-0.013,101.0,101.0,100.0,13.4,1505.2,322.3,-0.7,1.8,2471.137,13.29,0.01,264.3
2023-02-12T08:07:03,42.805,6.029,-0.025,-0.001,0.028,101.0,102.0,100.0,13.3,1505.2,316.6,-0.8,1.8,2471.172,13.29,0.025,267.7
2023-02-12T08:10:03,42.805,6.029,-0.005,-0.002,-0.028,101.0,102.0,99.0,13.3,1505.2,328.2,-0.8,1.8,2471.157,13.29,0.005,248.2
2023-02-12T08:13:03,42.805,6.029,-0.056,0.007,-0.016,102.0,102.0,100.0,13.4,1505.2,326.3,-0.8,1.8,2471.175,13.29,0.056,277.1
2023-02-12T08:16:03,42.805,6.029,-0.018,0.001,-0.027,102.0,101.0,100.0,13.3,1505.2,324.9,-0.8,1.8,2471.118,13.29,0.018,273.2
2023-02-12T08:19:03,42.805,6.029,-0.025,0.003,-0.014,102.0,101.0,100.0,13.4,1505.2,331.8,-0.8,1.8,2471.155,13.29,0.025,276.8
2023-02-12T08:22:03,42.805,6.029,-0.055,0.025,0.003,101.0,101.0,101.0,13.4,1505.2,329.9,-0.7,1.8,2471.139,13.29,0.06,294.4
2023-02-12T08:25:03,42.805,6.029,-0.023,0.009,0.009,101.0,101.0,100.0,13.4,1505.2,330.0,-0.8,1.8,2471.147,13.29,0.024,291.4
2023-02-12T08:28:03,42.805,6.029,-0.02,0.02,0.012,102.0,101.0,101.0,13.3,1505.2,322.0,-0.7,1.8,2471.158,13.29,0.028,315.0
2023-02-12T08:31:03,42.805,6.029,-0.037,0.018,0.026,103.0,101.0,100.0,13.4,1505.2,323.1,-0.7,1.8,2471.156,13.29,0.041,295.9
2023-02-12T08:34:03,42.805,6.029,-0.041,-0.006,-0.003,102.0,102.0,99.0,13.4,1505.2,329.6,-0.8,1.8,2471.129,13.29,0.041,261.7
2023-02-12T08:37:03,42.805,6.029,-0.019,0.01,0.013,101.0,101.0,100.0,13.4,1505.2,336.5,-0.8,1.8,2471.124,13.29,0.021,297.8
2023-02-12T08:40:03,42.805,6.029,-0.026,0.0,-0.038,101.0,101.0,100.0,13.4,1505.2,335.0,-0.8,1.8,2471.155,13.29,0.026,270.0
2023-02-12T08:43:03,42.805,6.029,-0.024,-0.003,-0.01,103.0,102.0,101.0,13.4,1505.2,338.3,-0.7,1.8,2471.104,13.29,0.024,262.9
2023-02-12T08:46:03,42.805,6.029,-0.017,0.027,0.036,101.0,101.0,100.0,13.4,1505.2,330.7,-0.8,1.8,2471.159,13.29,0.031,327.8
2023-02-12T08:49:03,42.805,6.029,-0.01,-0.002,-0.003,101.0,101.0,100.0,13.4,1505.2,325.5,-0.7,1.8,2471.141,13.29,0.01,258.7
2023-02-12T08:52:03,42.805,6.029,-0.022,-0.006,-0.009,101.0,101.0,100.0,13.4,1505.2,330.2,-0.8,1.8,2471.147,13.29,0.022,254.7
2023-02-12T08:55:03,42.805,6.029,-0.015,-0.004,-0.004,101.0,101.0,100.0,13.3,1505.2,321.6,-0.7,1.8,2471.132,13.29,0.015,255.1
2023-02-12T08:58:03,42.805,6.029,-0.016,0.001,0.029,101.0,102.0,99.0,13.3,1505.2,323.1,-0.7,1.8,2471.187,13.29,0.016,273.6
2023-02-12T09:04:03,42.805,6.029,-0.018,0.001,-0.007,100.0,101.0,100.0,13.3,1505.2,327.0,-0.7,1.8,2471.211,13.29,0.018,273.2
2023-02-12T09:07:03,42.805,6.029,-0.036,0.005,0.0,101.0,101.0,100.0,13.4,1505.2,322.7,-0.7,1.8,2471.18,13.29,0.036,277.9
2023-02-12T09:10:03,42.805,6.029,-0.003,-0.011,0.006,101.0,101.0,101.0,13.4,1505.2,320.5,-0.8,1.8,2471.207,13.29,0.011,195.3
2023-02-12T09:13:03,42.805,6.029,0.006,-0.029,-0.032,102.0,101.0,99.0,13.4,1505.2,321.3,-0.7,1.8,2471.174,13.29,0.029,168.3
2023-02-12T09:16:03,42.805,6.029,-0.024,0.006,-0.021,101.0,100.0,101.0,13.4,1505.2,335.9,-0.7,1.8,2471.204,13.29,0.024,284.0
2023-02-12T09:19:03,42.805,6.029,-0.029,0.023,-0.002,101.0,101.0,102.0,13.3,1505.2,325.8,-0.8,1.9,2471.175,13.29,0.037,308.4
2023-02-12T09:22:03,42.805,6.029,-0.037,-0.015,0.004,101.0,101.0,100.0,13.4,1505.2,322.8,-0.8,1.8,2471.173,13.29,0.039,247.9
2023-02-12T09:25:03,42.805,6.029,-0.021,0.031,0.036,99.0,101.0,102.0,13.3,1505.2,330.3,-0.8,1.8,2471.187,13.29,0.037,325.9
2023-02-12T09:28:03,42.805,6.029,-0.022,-0.019,-0.015,101.0,101.0,101.0,13.3,1505.2,321.0,-0.8,1.8,2471.19,13.29,0.029,229.2
2023-02-12T09:31:03,42.805,6.029,-0.008,-0.017,-0.033,102.0,101.0,99.0,13.4,1505.2,323.4,-0.8,1.8,2471.182,13.29,0.018,205.2
2023-02-12T09:34:03,42.805,6.029,-0.023,-0.002,-0.015,102.0,104.0,100.0,13.4,1505.2,319.6,-0.7,1.8,2471.191,13.29,0.023,265.0
2023-02-12T09:37:03,42.805,6.029,-0.02,0.011,-0.005,101.0,102.0,100.0,13.4,1505.2,339.1,-0.7,1.8,2471.155,13.29,0.022,298.8
2023-02-12T09:40:03,42.805,6.029,-0.049,0.008,0.013,102.0,102.0,100.0,13.4,1505.2,336.1,-0.8,1.8,2471.188,13.29,0.049,279.3
2023-02-12T09:43:03,42.805,6.029,-0.006,0.003,-0.012,101.0,101.0,101.0,13.3,1505.2,318.2,-0.7,1.8,2471.174,13.29,0.006,296.6
2023-02-12T09:46:03,42.805,6.029,-0.033,-0.001,0.031,103.0,102.0,100.0,13.3,1505.2,315.0,-0.8,1.8,2471.232,13.29,0.033,268.3
2023-02-12T09:49:03,42.805,6.029,-0.02,0.009,-0.019,100.0,101.0,101.0,13.3,1505.2,332.1,-0.8,1.8,2471.165,13.29,0.021,294.2
2023-02-12T09:52:03,42.805,6.029,-0.029,-0.012,-0.013,103.0,101.0,101.0,13.4,1505.2,318.2,-0.8,1.8,2471.208,13.29,0.031,247.5